Theta_e
312 310 310 311 312 313 313 313 313 314 314 313 313 313 314 315 315 317 321 324 325 326 327 327 328 330 330 329 333 333 332 333 334 334 333 334 333 327 326 325 328 331 336 342
310 309 311 312 313 313 313 313 313 313 314 313 313 313 314 314 314 315 316 320 323 326 325 326 328 328 330 330 333 333 332 332 332 332 332 332 328 324 323 326 334 337 340 343
310 310 312 312 312 312 313 313 313 313 313 313 313 313 313 314 314 314 315 316 320 325 326 326 327 328 328 330 333 333 332 332 332 331 329 328 326 325 330 335 340 341 344 343
309 309 311 312 312 312 313 314 315 314 312 311 312 312 312 313 313 314 316 316 317 321 327 326 324 326 331 332 333 334 332 332 331 330 329 328 324 322 324 340 342 343 345 344
309 309 312 312 313 314 314 314 314 313 311 308 310 309 311 312 312 313 313 315 318 320 324 326 324 326 327 332 333 332 331 330 329 329 328 327 324 323 326 331 345 345 345 346
310 312 311 314 313 312 314 314 313 312 308 309 309 309 309 310 311 313 313 314 316 320 322 326 325 325 327 333 332 331 330 329 328 327 327 326 324 323 330 338 344 346 346 347
312 311 311 313 312 311 311 314 315 312 309 311 311 313 313 313 313 312 313 314 314 315 318 325 325 324 326 330 331 329 328 328 327 327 326 325 325 326 329 339 347 346 347 347
310 310 310 312 310 310 310 312 314 316 313 312 311 312 311 313 314 315 314 315 313 314 317 323 326 325 325 325 328 327 327 328 328 327 327 326 326 329 330 338 346 345 346 346
310 312 311 311 310 309 309 311 310 313 314 315 313 312 313 313 314 316 317 316 316 316 323 324 326 325 326 326 327 327 327 325 325 325 326 328 330 332 328 339 350 346 346 345
312 312 311 311 311 311 312 311 311 314 314 317 314 314 314 319 318 315 315 316 318 320 325 327 326 326 325 325 328 329 330 326 324 324 328 332 332 329 337 343 351 347 346 344
311 311 312 311 311 312 313 313 314 314 315 317 315 313 318 317 316 315 314 314 317 319 324 325 328 329 332 333 330 331 333 332 327 328 330 331 340 341 348 352 348 347 348 345
312 312 312 311 310 312 312 312 314 316 315 313 315 315 315 314 314 314 313 315 320 322 322 328 331 336 334 332 331 332 335 329 327 330 341 345 344 350 351 348 349 348 346 345
312 311 311 310 309 313 313 312 312 313 314 316 316 314 314 314 313 313 314 316 318 318 319 321 337 338 337 335 336 333 336 331 340 345 344 348 349 350 349 349 343 342 341 340
313 311 312 313 312 311 312 312 312 311 312 314 314 314 316 314 313 313 313 314 315 319 316 319 326 335 338 341 340 338 338 344 343 342 346 349 350 347 347 342 341 340 339 337
312 314 313 313 313 312 312 312 313 312 312 314 315 316 315 315 313 313 314 315 315 316 318 319 321 336 339 342 341 341 344 343 343 345 346 349 347 344 343 341 340 337 333 333
312 314 313 314 313 312 312 312 313 313 313 313 314 316 315 314 313 314 314 315 315 317 317 318 319 325 337 341 342 342 343 344 344 345 345 344 341 341 340 338 336 335 334 334
314 314 315 314 312 312 313 312 313 314 314 313 316 314 315 316 315 315 315 316 320 323 322 320 319 322 327 338 340 341 341 343 345 343 342 341 340 339 338 335 334 334 334 333
314 312 313 314 313 314 312 312 314 314 314 312 315 315 314 314 314 315 317 318 317 318 320 322 319 321 330 332 339 338 341 342 342 341 339 340 339 336 335 335 334 335 334 332
312 313 312 312 312 313 313 316 315 314 313 315 315 314 314 313 312 314 319 316 315 316 318 321 323 324 328 332 339 339 339 341 341 339 338 336 335 335 335 335 333 334 333 331
313 313 313 311 311 310 315 316 313 312 313 314 313 312 312 312 314 312 313 313 313 314 316 319 323 323 328 334 333 339 339 340 338 335 334 335 336 334 333 332 333 332 333 331
315 314 313 312 313 313 315 314 312 315 311 313 312 312 311 311 312 312 311 312 313 314 315 319 321 323 323 333 326 339 339 337 334 333 334 336 336 332 332 331 332 334 333 332
309 313 313 314 316 313 315 313 314 311 312 312 313 312 311 311 311 311 311 313 314 313 315 317 319 325 322 326 331 338 336 334 333 333 334 334 333 331 332 333 333 333 332 330
312 313 315 314 313 314 314 314 313 313 312 312 312 312 310 311 310 310 311 312 313 313 313 316 318 324 322 331 333 338 335 333 333 333 333 334 332 331 332 333 333 333 333 331
313 312 312 313 314 315 313 313 314 313 313 312 311 311 311 310 310 310 310 311 312 312 314 316 318 321 326 334 336 338 335 333 333 334 334 332 330 331 332 333 333 331 331 330
310 311 313 314 314 313 313 314 313 312 312 311 310 309 309 309 309 309 312 312 312 312 314 316 318 322 329 335 338 338 334 334 333 334 333 331 330 332 333 332 332 331 331 331
311 314 315 316 314 313 312 313 312 312 310 310 309 307 307 307 308 309 311 312 312 312 314 317 319 321 332 335 337 338 333 334 334 334 332 330 332 333 333 332 331 331 330 331
Wind_Speed
12 5 6 11 10 12 13 17 17 20 12 13 13 18 22 18 23 24 33 27 37 40 51 49 38 37 35 38 36 39 33 28 27 30 32 30 29 29 30 33 31 27 29 30
5 6 8 14 14 14 14 15 18 17 13 13 16 21 23 16 17 26 29 34 36 42 44 46 52 43 42 40 42 41 38 37 35 34 34 35 34 33 32 26 22 21 26 29
6 8 13 14 13 15 14 14 16 20 15 12 16 20 22 26 22 29 35 35 37 42 46 44 45 43 44 48 43 42 41 41 35 32 30 33 34 33 29 24 23 25 24 27
8 11 13 12 16 15 17 15 20 19 10 10 6 18 16 20 22 19 25 31 35 33 44 49 44 50 34 36 40 40 36 34 31 31 31 32 34 33 31 25 25 28 25 25
12 12 4 11 9 11 16 14 20 23 10 9 10 10 15 9 16 21 17 33 35 39 40 49 48 46 42 38 37 37 34 30 33 29 30 31 33 33 28 27 26 28 26 23
7 13 5 3 10 10 16 8 14 16 4 12 15 12 20 16 21 24 21 34 40 34 37 47 49 43 43 33 35 36 33 32 28 30 31 31 32 33 28 24 30 29 27 22
7 5 4 3 5 16 12 4 4 4 4 12 12 5 8 18 22 25 25 33 42 52 44 41 48 41 38 32 30 28 29 31 32 35 33 34 32 33 31 28 32 30 29 22
4 5 7 4 9 15 10 5 4 6 9 13 12 10 14 19 21 32 35 40 43 46 56 42 49 40 39 39 38 33 32 33 33 34 38 37 37 33 27 32 35 33 29 22
5 5 16 16 12 10 14 6 6 3 3 2 6 18 18 20 18 17 32 32 33 38 37 40 42 43 37 36 33 30 30 31 32 35 34 40 40 33 32 35 31 32 23 18
4 8 7 15 16 9 9 7 8 2 4 6 8 11 8 13 19 26 32 31 37 27 21 7 22 20 20 20 18 17 18 27 33 32 31 37 34 30 30 34 32 29 22 16
9 4 7 8 5 7 8 4 4 3 4 4 5 4 8 12 16 23 30 45 39 52 10 6 7 10 12 14 18 19 17 18 28 28 28 28 25 27 29 29 27 25 23 19
5 4 5 14 17 7 6 5 5 3 5 4 7 10 10 8 14 18 31 34 35 36 1 5 5 10 12 17 24 27 19 25 28 26 23 21 26 30 29 28 30 29 25 22
1 3 4 6 3 1 1 9 5 4 1 7 6 6 6 8 13 20 24 30 30 37 27 11 2 4 13 20 27 29 26 28 28 24 22 27 30 28 30 33 30 26 24 21
6 4 6 8 13 12 17 19 16 9 3 12 12 20 4 10 9 14 28 32 37 21 46 17 6 10 8 15 21 25 29 28 24 23 29 31 31 30 33 29 27 24 22 20
2 5 9 14 17 18 19 21 17 14 13 14 16 5 6 5 7 6 18 26 34 34 44 21 16 6 6 16 29 30 27 25 28 30 30 29 27 26 24 23 22 20 19 19
3 6 9 17 18 18 20 16 18 11 9 11 10 4 5 15 11 13 17 21 27 27 43 11 15 15 8 12 24 27 31 31 32 33 28 25 24 25 23 21 18 17 20 18
3 4 4 9 11 14 12 6 2 1 4 10 6 5 7 6 10 10 12 26 24 30 30 29 10 16 14 13 27 31 36 35 33 29 27 27 26 25 22 19 20 19 18 18
6 2 3 5 8 3 4 3 7 4 3 11 11 13 11 13 21 19 14 17 29 31 35 32 18 20 13 15 18 29 34 34 31 33 29 26 25 22 23 20 20 19 19 17
6 4 3 3 3 12 11 6 4 4 3 5 6 9 12 23 22 16 7 24 31 34 34 27 28 23 19 12 23 37 33 34 34 29 25 27 24 24 23 21 20 18 20 19
7 3 2 3 3 4 4 4 9 2 2 7 6 6 10 19 9 11 26 36 38 35 33 28 23 27 22 12 6 18 30 32 28 25 26 27 24 18 20 22 20 19 17 19
3 2 7 7 6 7 1 7 11 4 6 10 6 8 10 7 16 30 35 37 32 32 33 28 18 16 24 3 19 16 31 29 26 25 27 27 22 12 18 19 19 17 16 17
5 3 4 3 3 6 6 4 2 7 26 21 10 14 19 19 28 26 27 30 29 30 30 30 24 17 24 24 33 23 28 28 26 25 26 23 19 16 17 19 16 15 16 18
4 5 3 6 5 6 15 16 27 24 25 30 21 16 23 26 24 25 28 28 28 30 30 28 22 19 32 5 17 21 25 26 30 26 23 25 23 19 14 16 14 18 15 16
5 9 5 8 4 7 23 29 31 21 17 23 28 27 14 17 24 28 27 30 29 29 26 26 24 23 27 12 30 22 24 23 29 27 30 26 20 18 15 12 14 14 14 13
13 10 8 11 8 9 22 17 18 19 20 25 30 24 24 20 29 31 25 29 29 28 26 23 27 26 30 15 24 22 23 19 28 29 28 22 20 21 18 17 18 15 14 13
4 8 3 4 10 15 17 23 23 18 24 27 26 33 32 28 29 27 29 29 28 29 25 24 25 28 20 12 27 25 22 18 30 29 25 22 23 20 15 16 18 17 13 12
Wind_Direction
322 348 283 270 269 275 287 291 292 296 320 327 302 291 288 296 300 289 245 247 240 244 251 260 261 261 256 245 229 228 223 214 216 225 238 244 250 256 261 269 272 267 263 256
329 287 290 314 313 312 302 290 277 281 290 293 298 289 291 294 291 287 283 267 238 235 242 252 254 259 260 249 230 223 225 232 238 226 229 240 248 258 264 262 262 262 252 250
299 291 302 301 304 292 289 283 282 284 292 277 271 276 287 291 286 280 281 271 268 230 229 242 245 255 258 245 230 217 217 227 229 230 237 242 256 257 252 246 244 251 249 244
274 281 292 338 319 320 298 294 302 303 304 277 255 275 266 281 288 288 288 277 272 270 230 235 246 243 256 237 227 214 211 221 233 235 240 251 250 246 248 237 238 241 245 246
262 283 8 287 315 348 301 307 295 296 288 310 285 283 287 273 270 279 282 283 279 272 250 227 237 241 249 227 210 209 215 224 239 240 252 261 249 244 245 238 228 236 244 245
291 344 312 84 333 305 285 281 301 279 256 268 271 262 274 269 275 286 277 281 280 283 265 228 224 240 235 225 211 207 211 226 243 255 261 254 244 241 238 233 229 232 235 234
314 302 336 119 313 317 318 61 342 324 311 270 273 296 264 300 283 261 270 277 273 276 284 237 222 229 225 221 213 221 233 240 245 251 253 247 244 242 235 231 228 231 228 228
278 308 292 264 303 295 296 233 188 267 274 283 298 269 272 260 272 279 276 282 272 283 287 234 223 225 235 229 233 237 243 241 239 246 245 243 240 238 233 228 232 233 230 233
355 302 328 319 317 315 296 274 259 319 344 310 250 268 268 269 272 331 334 276 271 271 285 225 214 217 232 230 223 223 228 239 243 242 243 237 233 229 235 223 230 225 225 220
351 313 316 302 322 300 343 310 294 70 262 243 242 286 271 13 3 347 343 332 328 263 268 122 159 171 184 192 194 206 224 242 244 241 237 226 226 233 221 216 217 212 215 198
331 217 296 306 280 321 340 9 20 178 224 277 310 272 47 21 5 347 329 326 328 311 296 282 155 200 204 204 211 221 230 235 225 219 215 221 220 212 203 198 202 205 204 186
55 272 276 293 291 146 207 223 177 154 285 293 286 273 65 28 28 333 328 319 323 304 224 286 184 184 218 233 240 234 226 212 210 208 210 218 193 189 187 191 198 193 186 178
337 308 318 302 294 102 26 294 253 207 157 253 271 277 100 46 12 348 312 324 328 302 338 20 184 332 277 254 239 225 207 200 193 196 201 185 185 183 188 187 180 175 172 171
300 213 230 264 269 276 286 283 283 239 240 271 271 298 15 64 21 344 323 317 307 300 327 327 16 345 257 244 231 193 185 181 182 187 181 175 179 177 179 174 170 172 175 174
219 252 257 266 282 286 286 290 309 292 267 288 311 29 81 122 58 329 291 298 310 327 318 323 11 1 261 191 174 177 177 179 173 175 174 174 174 179 176 173 177 181 177 171
254 268 292 282 279 277 282 281 280 291 352 304 315 66 196 163 165 239 284 296 292 293 292 323 351 352 269 226 185 184 170 169 172 171 166 172 171 172 173 171 167 166 163 174
311 280 299 274 280 314 295 248 59 319 319 286 355 280 330 152 225 263 303 324 338 354 345 340 325 333 312 264 197 185 166 167 161 163 169 172 169 170 170 168 163 163 166 166
200 290 271 291 312 247 249 267 295 334 359 326 328 22 13 4 345 328 314 16 347 343 342 345 327 309 333 313 219 174 168 167 160 161 164 167 168 169 161 163 163 169 169 174
162 156 277 274 295 276 287 359 34 57 311 83 78 11 346 350 346 326 356 339 336 331 329 334 347 332 354 304 177 166 162 159 155 155 163 164 164 169 171 164 168 173 178 185
143 189 197 322 274 271 274 316 0 347 291 80 30 10 341 331 320 296 312 312 317 320 314 325 332 346 345 353 237 183 152 153 154 157 158 168 171 170 169 169 175 182 190 194
207 220 229 238 237 276 28 51 12 6 208 98 7 333 318 297 282 290 296 296 302 302 301 310 321 316 339 273 189 172 153 160 158 157 167 176 173 150 152 168 186 185 189 190
189 235 208 216 244 269 133 80 165 253 293 287 285 282 284 281 283 276 282 285 291 294 290 294 308 287 316 315 201 173 163 163 157 163 174 172 160 151 168 177 183 190 178 181
288 184 215 210 229 290 303 283 280 283 273 290 283 281 297 289 280 280 284 284 284 286 284 285 291 308 322 279 204 164 165 165 165 167 167 160 154 157 176 179 182 175 177 184
276 297 271 300 258 317 314 289 280 289 272 286 298 296 281 276 285 284 273 273 276 277 271 277 289 306 313 231 193 178 168 173 168 159 154 155 160 164 166 173 176 165 173 183
270 301 277 277 295 285 272 295 317 290 282 295 295 287 293 283 282 282 268 264 263 269 258 272 293 295 306 222 185 171 168 173 165 161 158 158 164 168 164 165 163 173 187 187
241 305 264 282 275 285 281 315 301 289 304 295 289 294 287 274 260 262 264 256 261 257 260 279 285 288 302 252 189 166 171 180 166 157 154 158 165 172 171 173 172 173 185 184